SAUDISAT 1B

Satellite information

Favourite Embed

Satellite Type and Status

PAYLOADIN ORBIT

Key statistics

Satellite SAUDISAT 1B at a glance.

Uptime

9051

Days in orbit

Revolutions

≈ 14.9

Per day

Orbit

LEO

Low Earth Orbit

Inclination

64.6

Latest

Satellite identification and parameters

Extended collection of information and parameters for SAUDISAT 1B.

Object identification

Identified? True

Debris? False

Object name: SAUDISAT 1B

International designator: 2000-057E

Object number (NORAD): 26549

Object ID (CCSDS): 26549

Country: SAUDI ARABIA (SAUD)

Current information (Y/N): Y

RCS size: SMALL

Orbital parameters

Period: 96.655 minutes

Inclination: 64.5502 deg

SMA: 6976.567 km

Apoapsis: 601.248 km

Periapsis: 595.615 km

RAAN: 356.4552 deg

Eccentricy: 0.0004037

Argument of periapsis: 24.5688 deg

Mean anomaly: 335.5613 deg

Mean motion: 14.89841791 rev/day

Mean motion (dot): 0.00000957 rev/day2

B* drag term: 0.00011515 1/REarth

Two-line elements (TLE)

Creation date: July 6, 2025, 10:36 p.m.

Reference frame: TEME

Reference center: EARTH

Epoch: July 6, 2025, 8:09 p.m. UTC

TLE line 0: 0 SAUDISAT 1B

TLE line 1: 1 26549U 00057E 25187.83982175 .00000957 00000-0 11515-3 0 9991

TLE line 2: 2 26549 64.5502 356.4552 0004037 24.5688 335.5613 14.89841791340372

Live tracking on map

Real-time ground track for satellite SAUDISAT 1B.

In-orbit conjunctions

A list of the most updated potential collisions computed for object SAUDISAT 1B.

Target Orbit TCA Probability of collision Miss distance Type
PEGASUS DEB LEO 2025-02-21 13:01:56 0.0006009976 964.0 (m) DEBRIS
FENGYUN 1C DEB SSO 2024-09-28 16:26:03 0.0005333251 272.0 (m) DEBRIS

Associated space launch

Four small satellites were launched atop the Dnepr launch vehicle : MegSat 1, UniSat 1, TiungSat 1 as well as SaudiSat 1a and 1b. MegSat 1 is the second MegSat satellite. It is a LEO communications satellite. UniSat 1 is an Italian satellite developed and operated by GAUSS (La Sapienza University of Rome). TiungSAT-1 or MySat (Malaysian Satellite) is the first microsatellite for the Astronautic Technology (M) SDN. BHD. Company (ATSB) in Kuala Lumpur, Malaysia. Saudisat-1a and Saudisat-1b (Saudi Arabian Satellite) are the first Saudi Arabian micro satellites.

SAUDISAT 1B was lifted into orbit during the mission ‘Dnepr | SmallSat Rideshare’, on board a Dnepr space rocket.

The launch took place on Sept. 26, 2000, 10:05 a.m. from 109/95.

For more information about the launch, click the button.

Launch to space Dnepr | SmallSat Rideshare
Dnepr | SmallSat Rideshare

Agency: N/A

Status: Launch Successful

Launch date: Sept. 26, 2000, 10:05 a.m. UTC

Rocket: Dnepr

Launch pad: 109/95

Location: Baikonur Cosmodrome, Republic of Kazakhstan

...

Latest news about this satellite

There are no fresh news available about this satellite. Check back as we update our databases every day.


Newsletter sign-up

Weekly statistics, charts and insights to help you stay on top of the space industry.